Location: B�rgermoos
(47.6500°N, 9.0667°E)
Time: 17:42:26
(UTC+00:00)

Vanguard 1 - Pass Details

Date: 02 August 2021
Orbit: 652 x 3831 km, 34.3° (Epoch: 17 September)

Event Time Altitude Azimuth Distance (km) Brightness Sun altitude
Rises 13:30:51 0° 257° (WSW) 3,656 13.5 51.1°
Reaches altitude 10° 13:33:28 10° 244° (WSW) 2,989 13.4 50.8°
Maximum altitude 13:39:30 27° 189° (S) 2,626 13.2 50.0°
Drops below altitude 10° 13:48:52 10° 139° (SE) 4,789 13.6 48.7°
Sets 13:54:31 0° 130° (SE) 6,390 14.1 47.9°
